Content
SEND FEEDBACK

Daily
Averages
Monthly
Summary
United States of America

CHESTERTOWN, MARYLAND


Home > North America > United States > Maryland
Elevation: 38 feet     Latitude: 39 13N     Longitude: 076 04W

WEATHER
 
SELECT A DAY
Number of Records: 183,359;   Date Range: 1/1/95 - 12/27/14
 
SHARE

PRINT THIS DATA

[ ← Previous Day ]
WEATHER ALMANAC - FEBRUARY 13, 2013
[ Next Day → ]
[ °C ]   °F
Weather ElementAverageHighLow
Temperature34.3 °F44.6 °F (1:50 pm)28.4 °F (6:45 am)
Dewpoint30.4 °F35.6 °F (5:50 pm)26.6 °F (5:06 am)
Humidity87.1 %100 % (6:45 am)53 % (1:50 pm)
Barometer29.86 in29.99 in (12:27 am)29.69 in (3:50 pm)
Wind Speed1.8 mph6.9 mph (10:30 pm)
Weather ElementAverage
Visibility7.5 mi
Wind DirectionESE (97.8 °)

Weather ElementTotal
Precipitation0.04 in
Heating Degree Days28.5 (Base 65)
Averaged from 37 records on February 13, 2013
WEATHER CONDITIONS BREAKOUT
WIND DIRECTION BREAKOUT
WEATHER BY HOUR - FEBRUARY 13, 2013
[ °C ]   °F
Local TimeTemperatureDewpointHumidityBarometerVisibilityWind DirectionWind SpeedGust SpeedPrecipitationEventsConditions
12:27 AM32.0 °F28.4 °F87 %29.99 in10.0 miCalmClear
12:48 AM32.0 °F30.2 °F93 %29.98 in10.0 miCalmClear
1:09 AM32.0 °F30.2 °F93 %29.99 in10.0 miCalmClear
1:27 AM32.0 °F30.2 °F93 %29.99 in10.0 miCalmClear
1:48 AM32.0 °F28.4 °F87 %29.99 in10.0 miCalmClear
2:09 AM30.2 °F28.4 °F93 %29.98 in10.0 miCalmClear
2:27 AM32.0 °F30.2 °F93 %29.96 in10.0 miNorth (360°)3.5 mphClear
2:48 AM32.0 °F28.4 °F87 %29.96 in10.0 miCalmClear
3:09 AM32.0 °F28.4 °F87 %29.95 in10.0 miCalmClear
3:27 AM32.0 °F28.4 °F87 %29.94 in10.0 miCalmClear
3:45 AM30.2 °F28.4 °F93 %29.93 in10.0 miCalmClear
4:09 AM32.0 °F28.4 °F87 %29.93 in10.0 miCalmClear
4:27 AM30.2 °F28.4 °F93 %29.93 in10.0 miCalmClear
4:48 AM30.2 °F28.4 °F93 %29.92 in10.0 miCalmClear
5:06 AM30.2 °F26.6 °F86 %29.93 in10.0 miCalmClear
5:30 AM30.2 °F28.4 °F93 %29.93 in10.0 miCalmClear
5:45 AM30.2 °F26.6 °F86 %29.93 in10.0 miCalmClear
6:45 AM28.4 °F28.4 °F100 %29.92 in7.0 miNorth (350°)3.5 mphPartly Cloudy
7:54 AM32.0 °F28.4 °F87 %29.91 in10.0 miCalmMostly Cloudy
8:50 AM35.6 °F30.2 °F81 %29.91 in10.0 miCalmMostly Cloudy
9:55 AM37.4 °F30.2 °F75 %29.90 in10.0 miCalmMostly Cloudy
10:54 AM39.2 °F28.4 °F65 %29.87 in10.0 miENE (60°)5.8 mphMostly Cloudy
1:50 PM44.6 °F28.4 °F53 %29.77 in10.0 miNE (50°)4.6 mphMostly Cloudy
2:45 PM44.6 °F30.2 °F57 %29.73 in10.0 miCalmOvercast
3:50 PM44.6 °F30.2 °F57 %29.69 in10.0 miNNE (20°)3.5 mphOvercast
4:25 PM42.8 °F32.0 °F66 %29.70 in4.0 miCalmDrizzle
4:50 PM41.0 °F32.0 °F70 %29.70 in3.0 miNNE (30°)3.5 mphRainLight Rain
5:50 PM39.2 °F35.6 °F87 %29.71 in3.0 miCalmRainRain
6:45 PM35.6 °F35.6 °F100 %29.71 in3.0 miNNW (330°)4.6 mphRainRain
7:55 PM35.6 °F33.8 °F93 %29.73 in2.0 miNW (320°)3.5 mphSnowLight Snow
8:50 PM33.8 °F33.8 °F100 %29.72 in2.0 miNW (310°)4.6 mphSnowLight Snow
9:45 PM33.8 °F33.8 °F100 %29.73 in2.0 miNNW (340°)3.5 mphSnowLight Snow
10:12 PM33.8 °F33.8 °F100 %29.74 in2.5 miWNW (300°)5.8 mphRainLight Rain
10:30 PM33.8 °F33.8 °F100 %29.75 in2.0 miWest (280°)6.9 mph0.01 inOvercast
11:12 PM33.8 °F33.8 °F100 %29.76 in2.5 miWNW (290°)4.6 mph0.01 inRainRain
11:30 PM33.8 °F33.8 °F100 %29.76 in2.5 miWNW (290°)3.5 mph0.01 inRainRain
11:51 PM33.8 °F33.8 °F100 %29.77 in3.0 miWNW (290°)5.8 mph0.01 inLight Drizzle
Hourly data recorded from KMTN, located miles away from Chestertown, Maryland







STORIES FROM OUR PARTNERS